Wetbulb
53.78 54.88 55.80 54.52 53.71 53.84 53.48 54.55 52.68 54.84 55.00 58.80 61.39 62.08 62.61 64.13 66.15 64.65 65.83 68.01 71.19 74.07 74.53 74.41 74.11 73.62 73.00 72.45 73.09 71.91 70.77 70.19 70.15 70.80 70.22 69.22 68.96 68.65 69.80 69.66 69.46 69.20 68.63 67.63
52.80 54.29 54.29 53.82 55.00 54.61 53.80 54.23 54.70 54.91 54.85 62.95 64.12 63.09 62.04 62.13 62.26 63.20 65.62 65.03 69.39 72.46 73.81 73.03 73.48 72.89 72.45 72.81 72.08 71.53 69.85 69.05 69.73 69.78 68.82 68.61 68.58 68.31 69.15 69.06 69.40 68.43 66.81 66.57
51.31 53.62 53.31 51.03 54.40 54.75 55.49 56.35 55.32 53.58 58.45 62.53 61.39 61.81 62.26 61.98 61.74 61.62 62.72 64.55 68.84 71.29 74.05 73.77 73.52 73.18 72.01 72.37 71.97 71.30 69.74 69.39 69.35 68.95 67.70 68.53 68.41 68.74 68.92 69.12 69.11 67.50 67.04 65.41
51.31 54.80 47.39 54.54 57.83 57.08 55.54 56.51 57.64 57.40 61.31 63.14 63.20 63.19 62.61 63.54 62.51 61.95 62.32 65.06 68.64 68.98 72.92 74.10 73.86 73.20 72.07 72.04 71.15 69.53 69.04 68.58 68.85 68.08 67.39 68.49 69.52 69.12 69.67 69.87 68.12 66.67 65.40 66.41
51.15 50.39 53.52 54.94 57.54 56.73 55.44 55.57 58.83 57.95 60.75 60.93 61.45 61.33 63.49 66.13 67.19 66.60 66.99 69.54 72.12 71.49 73.89 74.50 73.27 73.09 71.26 70.21 69.84 68.76 67.99 68.04 68.23 67.81 67.64 68.47 68.33 69.07 69.82 68.44 67.40 66.15 66.51 65.65
53.50 48.98 47.96 56.30 60.22 60.75 59.98 53.96 60.13 60.30 59.62 59.85 61.05 55.87 61.24 66.71 66.03 67.29 70.25 70.73 70.50 70.20 71.65 74.18 73.83 72.01 69.25 69.60 68.95 67.83 67.60 68.48 68.97 68.54 68.31 68.11 68.72 69.19 69.95 69.12 67.07 66.64 65.29 66.30
53.70 51.43 53.35 59.96 59.75 60.75 52.01 55.34 62.01 61.57 61.89 61.94 61.42 63.45 66.10 65.81 66.19 68.03 69.36 68.92 69.60 71.09 71.59 73.90 73.61 70.99 69.64 69.48 68.45 69.00 68.82 69.60 68.73 68.67 68.94 68.97 68.94 70.00 69.31 68.38 66.96 65.86 65.37 66.08
54.33 52.17 49.88 61.08 59.08 55.74 62.64 65.59 63.27 64.16 63.81 63.63 64.04 63.93 64.76 65.14 67.28 67.67 67.82 68.25 69.15 71.93 72.93 73.77 72.65 70.82 69.46 68.98 69.82 68.80 69.44 68.87 68.14 68.63 67.09 67.49 70.18 69.85 68.84 67.88 65.86 64.56 66.23 62.58
56.12 55.47 63.03 63.91 64.28 66.31 66.03 64.90 63.97 64.22 63.18 63.46 62.24 61.99 62.79 63.73 66.21 67.77 68.33 69.81 70.62 71.30 72.89 72.09 72.00 70.85 69.90 70.95 71.82 70.04 69.37 69.27 68.92 69.14 67.70 68.84 68.46 67.45 66.21 66.40 65.66 60.67 63.01 60.64
58.70 59.55 60.79 62.11 63.40 64.35 64.66 62.88 62.92 62.45 61.49 60.53 59.40 59.86 60.24 61.58 62.57 64.63 66.93 68.01 69.61 71.04 71.16 68.30 70.81 71.11 71.15 71.88 71.90 68.43 67.16 66.35 65.38 65.27 67.20 67.69 66.43 65.91 64.96 65.79 65.22 63.32 60.75 59.91
59.07 59.59 59.79 60.12 61.18 61.87 61.92 61.50 60.52 60.23 59.86 58.95 58.39 57.87 58.30 59.89 63.15 63.46 65.52 65.91 66.54 68.33 69.76 66.97 69.82 69.84 69.75 69.77 66.48 62.27 60.73 60.83 62.72 64.15 64.46 63.78 65.65 58.45 63.96 58.04 59.83 61.62 59.76 59.35
51.86 61.44 61.30 61.16 61.83 61.74 60.17 59.32 59.69 58.68 58.22 58.71 58.10 57.79 58.47 59.86 62.10 63.05 62.73 63.42 63.80 65.13 65.90 68.60 68.93 65.65 60.41 60.22 60.04 57.42 57.60 59.38 59.18 62.40 63.92 63.97 61.55 55.96 49.43 49.14 46.94 46.98 44.98 52.41
57.07 60.44 60.82 61.89 62.71 61.95 60.38 59.25 58.37 57.20 57.58 56.90 57.91 58.53 58.15 60.64 62.33 60.82 62.41 62.70 63.52 63.46 64.00 66.58 68.89 65.78 61.69 61.70 60.65 59.94 58.47 59.64 63.57 62.83 63.06 63.41 61.87 60.19 54.62 52.36 46.32 45.51 44.89 45.44
57.81 58.35 56.82 57.31 57.43 59.90 59.09 58.12 57.16 57.48 57.58 57.08 57.41 59.77 59.64 60.41 61.37 62.73 63.21 63.65 64.23 63.75 64.49 65.44 66.78 66.13 66.41 65.24 64.51 60.94 63.40 58.62 64.22 64.90 63.31 62.70 60.61 61.36 59.40 57.40 54.43 55.50 48.02 49.16
54.92 55.25 54.86 56.38 56.52 56.32 57.23 56.99 56.09 55.25 55.87 56.81 59.03 59.43 59.33 59.38 60.69 62.43 63.72 63.68 63.31 63.64 64.65 65.86 65.29 65.67 65.84 65.79 65.53 64.38 65.01 64.49 64.73 64.33 62.94 61.23 60.26 61.03 61.12 61.06 58.78 61.22 59.84 50.33
54.53 54.19 54.37 54.30 55.06 56.50 56.37 55.69 54.61 55.56 57.59 58.61 60.16 61.01 60.64 60.74 62.07 62.88 62.65 63.49 62.60 62.33 65.07 64.64 64.65 61.66 62.18 61.59 59.23 57.49 59.76 60.22 59.32 60.29 59.36 58.22 60.03 58.87 58.96 59.70 58.55 57.76 56.44 56.55
51.67 52.06 54.14 54.54 55.91 57.12 57.64 58.11 58.35 58.26 58.86 58.17 59.83 60.69 60.52 60.23 61.79 61.13 62.53 62.83 64.54 64.98 65.65 65.49 64.03 62.02 61.51 59.97 58.92 58.24 60.17 61.03 57.24 60.07 61.13 61.97 58.27 58.47 56.17 55.34 58.89 55.60 57.01 54.30
56.17 56.67 57.02 56.92 56.56 56.70 57.20 57.87 58.55 59.49 59.00 59.41 61.09 60.79 60.81 61.12 60.52 62.67 63.56 64.46 63.11 63.26 63.98 64.72 64.91 65.17 61.15 58.50 58.09 56.30 59.53 60.82 59.68 59.78 59.80 59.04 57.12 57.17 57.56 58.96 57.17 57.47 55.46 55.09
56.98 57.18 58.01 58.34 58.92 58.92 59.11 59.31 59.80 60.51 61.31 61.11 60.68 60.40 62.19 61.71 62.30 62.83 63.29 62.51 62.37 61.53 62.80 63.08 61.43 63.10 60.86 59.96 58.34 59.95 60.56 59.68 59.97 59.51 59.63 57.72 58.46 57.61 57.38 57.42 55.65 57.33 55.44 53.99
57.60 58.26 59.33 59.19 59.36 58.90 58.77 59.86 60.19 59.64 60.49 60.74 61.09 60.81 59.49 61.81 60.47 62.44 62.81 60.51 59.29 60.30 61.51 61.96 61.89 60.89 60.77 59.88 59.83 60.40 59.80 59.52 59.12 58.94 58.61 59.13 56.94 56.14 56.30 51.00 55.19 54.77 53.74 53.33
57.49 58.64 58.24 58.17 58.71 58.97 59.33 59.22 58.74 58.29 59.17 61.10 61.04 59.85 61.25 61.34 62.88 62.51 61.77 59.36 58.71 58.81 59.53 60.45 60.32 60.22 60.04 58.66 59.06 58.79 58.11 57.05 56.14 56.50 56.20 55.26 56.35 55.52 56.00 53.91 53.42 52.86 52.07 52.49
58.95 58.20 57.05 57.45 57.12 56.69 57.41 57.29 57.26 57.73 58.57 59.96 60.89 61.21 61.22 60.65 60.39 59.81 60.58 58.87 58.59 51.21 58.72 59.32 59.07 55.12 58.71 56.47 58.08 57.63 57.37 56.79 55.59 55.10 54.78 55.73 55.13 54.05 53.26 52.95 51.82 51.83 51.68 52.42
58.34 58.09 57.64 56.92 55.74 55.21 55.42 54.61 53.98 54.88 56.14 57.58 58.28 59.86 60.63 61.46 59.06 57.70 55.55 57.11 57.95 52.24 57.92 56.28 50.43 50.61 51.67 55.03 56.40 55.74 56.16 55.69 55.15 54.96 54.69 53.95 53.34 52.99 51.84 50.93 50.93 51.12 50.46 50.67
58.23 58.23 56.87 56.60 56.40 55.36 53.68 54.20 53.52 50.97 51.64 54.48 55.57 56.90 58.34 56.86 55.83 53.46 52.25 48.57 46.15 51.09 53.46 51.24 50.52 48.99 48.83 52.38 56.11 55.74 55.38 54.99 54.18 53.19 51.94 47.95 51.09 50.55 50.36 50.16 49.63 49.51 49.27 48.27
57.63 57.78 57.15 56.00 55.18 54.87 55.43 54.58 52.22 49.73 51.66 53.16 54.54 53.62 53.92 54.18 54.29 53.76 52.65 50.73 48.11 51.13 51.76 48.66 48.99 50.75 54.20 54.38 53.67 53.34 53.32 52.70 52.11 51.69 51.18 50.88 50.21 49.65 50.00 50.34 50.03 49.77 49.69 49.57
57.00 56.09 56.23 55.62 57.57 56.53 56.29 55.90 55.06 55.10 53.85 50.78 49.96 51.77 51.15 51.67 51.84 52.19 52.46 50.62 50.59 48.90 49.81 52.41 52.99 53.39 53.34 53.12 53.12 53.26 52.37 51.43 50.95 50.72 50.53 51.43 51.13 50.65 50.24 49.69 49.85 50.28 50.02 49.76
57.49 52.65 55.78 55.47 55.96 56.80 56.01 55.68 55.40 54.62 54.53 54.48 53.73 54.68 53.91 53.40 52.93 51.55 50.20 52.29 52.35 52.61 53.34 52.89 52.64 52.45 52.93 53.09 53.21 53.18 53.10 51.56 46.63 50.68 51.84 51.52 51.67 51.26 50.97 50.84 50.72 50.68 50.50 50.28
MSLP
993.85 993.56 993.32 993.92 994.53 995.10 995.08 995.43 995.66 995.71 995.99 996.54 997.62 998.68 999.48 1000.26 1001.05 1001.59 1001.89 1002.38 1003.07 1003.53 1004.30 1005.12 1005.99 1007.03 1008.12 1009.29 1010.35 1011.24 1012.27 1012.91 1013.09 1013.22 1013.41 1013.48 1013.58 1013.64 1013.54 1013.51 1013.32 1013.41 1013.32 1013.18
994.08 993.84 993.56 993.14 993.26 993.96 994.74 995.22 995.50 995.91 996.22 997.20 997.90 999.02 999.97 1000.81 1001.46 1001.99 1002.37 1002.75 1003.42 1003.96 1004.71 1005.43 1006.31 1007.28 1008.26 1009.24 1010.24 1011.10 1012.04 1012.73 1012.90 1013.10 1013.14 1013.19 1013.33 1013.40 1013.35 1013.28 1013.22 1013.22 1013.14 1012.90
994.31 994.34 993.74 993.10 992.65 993.04 993.70 994.34 994.95 995.55 996.24 997.22 998.64 999.82 1000.66 1001.31 1001.74 1002.14 1002.22 1002.85 1003.46 1003.97 1004.67 1005.61 1006.39 1007.31 1008.28 1009.26 1010.31 1011.22 1012.02 1012.47 1012.75 1012.91 1012.90 1012.93 1012.98 1013.02 1013.00 1012.97 1012.98 1013.05 1012.84 1012.60
994.60 994.92 993.66 992.85 992.78 993.00 993.69 994.37 994.88 995.59 997.00 998.37 999.44 1000.26 1001.16 1001.86 1002.25 1002.41 1002.74 1003.34 1003.83 1004.14 1004.25 1005.08 1006.04 1007.11 1008.04 1009.11 1010.12 1011.08 1011.89 1012.28 1012.48 1012.55 1012.53 1012.58 1012.66 1012.77 1012.71 1012.65 1012.70 1012.84 1012.56 1012.16
994.63 994.49 994.12 993.56 993.04 993.49 994.12 994.86 995.44 996.02 997.08 998.45 999.79 1000.81 1001.88 1002.44 1002.64 1002.96 1003.37 1003.84 1004.13 1004.20 1004.16 1004.82 1005.78 1006.92 1007.90 1008.96 1009.89 1010.85 1011.50 1011.86 1011.96 1012.04 1012.20 1012.32 1012.41 1012.50 1012.50 1012.49 1012.44 1012.42 1012.11 1012.00
994.79 994.78 993.86 993.79 993.29 993.58 994.38 995.17 995.86 996.72 997.60 998.50 999.74 1001.17 1002.45 1003.23 1003.44 1003.69 1004.01 1004.18 1004.10 1004.06 1004.14 1004.99 1005.98 1006.93 1007.85 1008.86 1009.71 1010.55 1011.00 1011.23 1011.40 1011.70 1012.02 1012.17 1012.24 1012.18 1012.21 1012.16 1012.14 1011.90 1011.79 1011.58
994.77 994.94 994.58 994.01 994.39 994.86 996.34 997.52 997.39 997.89 998.72 999.68 1000.86 1002.47 1003.42 1003.64 1003.78 1004.04 1004.10 1004.20 1004.16 1004.32 1004.42 1005.01 1006.03 1006.94 1007.87 1008.73 1009.50 1010.10 1010.46 1010.62 1011.08 1011.44 1011.72 1011.80 1011.75 1011.62 1011.68 1011.74 1011.82 1011.76 1011.46 1011.15
995.30 995.50 995.61 995.40 995.95 996.73 998.18 998.59 998.82 999.61 1000.47 1001.36 1002.25 1002.91 1003.48 1003.84 1004.09 1004.12 1004.24 1004.13 1004.23 1004.49 1004.77 1005.27 1006.00 1006.90 1007.71 1008.45 1009.09 1009.63 1010.09 1010.57 1010.88 1011.09 1011.27 1011.00 1011.08 1011.18 1011.05 1011.29 1011.69 1011.46 1011.21 1010.86
996.04 996.78 997.06 997.10 997.51 998.38 998.90 999.59 1000.34 1001.04 1001.68 1002.26 1002.90 1003.58 1004.16 1004.62 1004.80 1004.86 1004.68 1004.72 1004.54 1004.72 1004.96 1005.36 1006.05 1006.70 1007.51 1008.15 1008.98 1009.54 1010.16 1010.69 1011.00 1010.94 1010.72 1010.78 1010.62 1010.72 1010.78 1010.82 1011.24 1011.05 1010.87 1010.94
996.72 998.14 998.32 998.90 999.20 999.36 999.95 1000.59 1001.16 1001.80 1002.39 1002.94 1003.47 1004.08 1004.65 1005.11 1005.42 1005.66 1005.72 1005.55 1005.29 1004.95 1004.88 1005.05 1005.54 1006.06 1006.74 1007.87 1008.81 1009.59 1010.33 1010.87 1011.76 1012.15 1011.01 1010.62 1010.31 1010.23 1010.44 1010.06 1010.92 1011.16 1011.12 1011.37
997.27 998.45 998.87 999.60 1000.13 1000.56 1001.18 1001.78 1002.09 1002.74 1003.17 1003.67 1004.20 1004.67 1005.06 1005.39 1005.74 1006.02 1006.15 1006.14 1005.93 1005.74 1005.59 1005.63 1006.60 1005.21 1005.60 1006.78 1008.49 1010.47 1011.15 1010.61 1010.87 1011.41 1010.41 1010.09 1010.15 1010.61 1010.39 1010.92 1010.98 1011.50 1011.67 1012.01
999.14 998.16 998.36 999.58 1000.62 1001.57 1002.31 1002.75 1003.18 1003.55 1003.92 1004.29 1004.70 1005.08 1005.35 1005.70 1005.90 1006.12 1006.27 1006.30 1006.31 1006.22 1006.03 1005.95 1006.40 1006.89 1008.70 1007.44 1009.45 1009.89 1010.90 1011.01 1011.14 1010.54 1009.00 1008.42 1009.42 1010.79 1010.68 1011.58 1011.35 1011.96 1012.19 1012.32
1000.51 1000.14 1000.13 1000.62 1001.28 1002.26 1002.91 1003.42 1003.85 1004.05 1004.36 1004.76 1005.11 1005.35 1005.51 1005.81 1005.96 1006.12 1006.27 1006.28 1006.24 1006.29 1006.30 1006.19 1006.64 1007.67 1008.12 1008.76 1010.05 1008.82 1010.36 1009.96 1008.73 1009.30 1008.78 1008.54 1008.88 1009.73 1011.15 1012.16 1012.13 1011.82 1012.53 1012.90
1002.04 1001.80 1001.62 1002.04 1002.36 1002.92 1003.45 1003.86 1004.20 1004.62 1004.87 1005.02 1005.18 1005.36 1005.57 1005.76 1005.89 1005.92 1006.00 1006.14 1006.25 1006.39 1006.36 1006.22 1006.91 1007.36 1007.97 1008.49 1008.87 1008.81 1009.22 1009.15 1008.10 1008.26 1008.40 1008.34 1008.33 1009.14 1009.95 1011.07 1011.35 1011.74 1012.10 1012.66
1002.36 1002.50 1002.65 1002.88 1003.26 1003.58 1003.94 1004.34 1004.62 1004.72 1004.75 1004.79 1004.90 1005.01 1005.20 1005.34 1005.48 1005.59 1005.79 1006.17 1006.31 1006.18 1006.06 1006.36 1006.96 1007.06 1007.30 1007.54 1008.14 1008.84 1008.91 1008.86 1008.50 1008.55 1008.56 1008.49 1008.82 1008.61 1009.29 1010.18 1010.44 1010.84 1011.16 1012.16
1002.52 1002.84 1003.27 1003.51 1003.69 1004.03 1004.28 1004.44 1004.58 1004.64 1004.63 1004.60 1004.64 1004.74 1004.89 1005.01 1005.17 1005.36 1005.58 1006.00 1006.06 1005.98 1006.00 1006.18 1006.51 1007.37 1007.63 1008.01 1008.46 1008.97 1009.45 1008.95 1009.22 1009.27 1009.35 1009.48 1010.03 1009.88 1010.32 1010.44 1010.68 1010.57 1011.09 1011.33
1003.32 1003.61 1003.77 1003.98 1003.97 1004.38 1004.54 1004.56 1004.56 1004.70 1004.87 1005.02 1004.90 1004.86 1004.71 1004.80 1004.96 1005.32 1005.70 1005.74 1005.75 1006.04 1006.18 1006.34 1006.44 1007.43 1007.73 1008.24 1008.19 1008.34 1009.24 1009.32 1008.00 1008.96 1010.12 1010.80 1010.65 1010.75 1010.41 1010.66 1011.03 1010.90 1011.09 1010.96
1003.88 1004.17 1004.44 1004.49 1004.60 1004.72 1004.85 1004.82 1004.72 1004.70 1005.05 1005.09 1004.97 1004.96 1005.00 1004.97 1005.13 1005.50 1005.59 1005.59 1005.75 1006.37 1006.60 1006.95 1007.06 1007.28 1008.10 1008.37 1008.27 1008.29 1009.94 1008.88 1008.44 1009.43 1009.75 1010.43 1010.42 1010.21 1010.63 1010.72 1010.11 1010.29 1010.83 1010.92
1004.26 1004.50 1004.78 1004.75 1004.95 1005.12 1005.28 1005.55 1005.52 1005.36 1005.33 1005.12 1005.09 1005.10 1005.14 1005.20 1005.34 1005.37 1005.79 1006.17 1006.43 1006.90 1007.68 1007.52 1007.82 1007.82 1008.39 1009.03 1009.50 1009.40 1009.10 1009.14 1009.47 1009.69 1009.78 1010.06 1009.86 1009.76 1010.91 1010.57 1010.03 1009.97 1010.24 1010.43
1004.43 1004.73 1004.96 1005.48 1006.10 1006.10 1006.18 1006.35 1006.29 1006.03 1005.90 1005.89 1005.78 1005.63 1005.49 1005.36 1005.46 1005.95 1006.54 1007.42 1007.88 1008.10 1008.41 1008.26 1008.36 1008.53 1008.86 1009.25 1008.97 1008.90 1009.06 1009.22 1009.26 1009.43 1009.75 1009.86 1009.90 1009.78 1009.94 1009.89 1009.77 1009.90 1010.18 1010.60
1004.91 1005.44 1005.92 1006.25 1006.56 1006.92 1007.16 1007.18 1007.11 1006.94 1006.89 1006.60 1006.12 1005.82 1005.47 1005.94 1006.00 1006.44 1007.02 1007.44 1008.27 1008.54 1008.66 1008.78 1008.78 1008.79 1008.88 1009.07 1008.93 1009.38 1009.61 1009.67 1009.52 1009.50 1009.39 1009.19 1009.37 1009.81 1009.37 1009.48 1009.80 1010.25 1010.56 1010.97
1005.69 1005.98 1006.66 1007.04 1007.46 1007.80 1008.00 1007.98 1007.98 1007.97 1007.63 1007.12 1006.44 1006.14 1006.29 1006.74 1006.98 1007.45 1007.65 1007.85 1008.58 1009.18 1008.62 1008.44 1008.55 1009.28 1009.12 1009.33 1009.16 1009.26 1009.55 1009.59 1009.28 1008.91 1008.76 1008.71 1008.91 1009.24 1009.70 1010.16 1010.55 1010.94 1011.25 1011.53
1006.47 1006.80 1007.20 1007.59 1008.08 1008.41 1008.73 1008.88 1009.00 1008.78 1008.48 1008.00 1007.69 1007.24 1007.11 1007.33 1007.64 1007.89 1008.14 1008.68 1008.72 1009.38 1008.96 1009.22 1009.62 1009.54 1009.60 1009.25 1009.08 1009.32 1008.88 1008.84 1008.78 1008.83 1009.05 1009.30 1009.45 1009.71 1010.15 1010.68 1011.03 1011.47 1011.89 1012.13
1007.19 1007.48 1007.74 1008.08 1008.29 1008.56 1008.72 1008.96 1009.14 1009.53 1009.39 1008.94 1008.66 1008.28 1007.82 1007.79 1008.14 1008.58 1008.84 1009.41 1009.70 1009.40 1009.32 1009.64 1009.69 1009.52 1009.47 1008.97 1008.07 1008.27 1008.60 1008.84 1008.91 1009.18 1009.56 1009.75 1009.79 1010.36 1010.89 1011.23 1011.66 1012.21 1012.67 1012.83
1007.62 1007.78 1008.03 1008.19 1008.35 1008.34 1008.50 1008.80 1009.19 1009.51 1009.39 1009.28 1009.04 1008.94 1008.82 1008.66 1008.67 1008.86 1009.19 1009.71 1009.76 1009.44 1009.53 1009.62 1009.40 1009.05 1008.52 1008.50 1008.71 1008.96 1009.19 1009.39 1009.47 1009.66 1009.95 1010.28 1010.53 1011.04 1011.60 1011.91 1012.17 1012.60 1012.93 1013.29
1007.99 1007.86 1008.09 1008.28 1007.90 1008.01 1007.95 1008.13 1008.16 1008.66 1009.04 1009.21 1009.46 1009.33 1009.48 1009.68 1009.74 1009.76 1009.93 1009.91 1009.98 1009.86 1009.77 1009.54 1009.28 1009.08 1009.00 1009.08 1009.15 1009.30 1009.73 1010.05 1010.09 1010.09 1010.28 1010.56 1010.91 1011.28 1011.76 1012.40 1012.67 1012.91 1013.42 1013.79
1008.10 1007.72 1007.80 1007.53 1007.26 1007.13 1007.50 1007.55 1007.54 1007.66 1007.62 1007.88 1008.23 1008.53 1009.06 1009.38 1009.50 1009.58 1009.63 1009.45 1009.36 1009.25 1009.28 1009.44 1009.38 1009.38 1009.31 1009.27 1009.42 1009.64 1009.78 1010.29 1010.57 1010.62 1010.63 1011.06 1011.40 1011.76 1012.14 1012.47 1012.84 1013.02 1013.37 1013.91
Wind_Speed
24 20 17 18 20 20 21 13 15 12 10 9 15 13 11 9 6 3 3 4 4 4 8 9 10 11 11 11 8 9 7 6 5 4 3 2 3 5 6 7 6 7 8 8
22 22 24 20 24 22 22 19 17 15 13 15 12 13 10 7 5 4 4 2 4 5 10 11 10 10 10 9 8 7 6 7 6 4 3 2 3 5 6 7 6 7 9 9
18 23 21 21 19 18 18 21 18 14 10 14 14 11 7 5 3 2 4 3 3 6 7 9 9 10 10 9 8 7 7 6 4 4 3 3 3 5 6 5 5 7 8 9
13 16 24 14 17 12 14 15 13 9 14 14 10 8 7 3 3 2 0 4 6 8 7 12 12 11 9 10 9 8 7 6 5 5 4 2 4 4 5 3 4 6 8 7
12 15 16 22 10 7 6 8 6 2 10 14 12 9 7 11 9 7 6 5 4 6 5 11 13 12 9 9 10 9 9 7 6 5 4 4 3 3 3 4 5 6 6 6
11 18 19 11 1 10 6 11 8 6 2 5 10 5 6 5 5 6 6 4 5 4 3 10 10 10 9 9 9 9 7 7 6 5 4 4 3 2 3 3 6 5 7 5
13 13 14 5 11 7 7 1 9 6 6 8 6 8 5 2 3 2 3 4 4 5 5 8 10 11 10 9 10 9 7 5 5 5 6 5 5 3 4 5 6 7 8 5
10 12 17 14 14 9 9 9 12 14 11 11 8 5 6 8 7 6 7 7 3 4 5 8 11 11 11 10 9 7 6 6 7 6 5 5 2 3 6 6 8 8 3 5
5 3 13 16 16 13 12 12 13 11 11 9 6 7 7 6 8 11 9 10 5 4 6 8 10 10 10 9 5 6 6 4 5 6 5 4 5 7 7 7 6 3 3 5
8 9 14 12 10 12 14 13 12 11 10 7 6 5 4 5 5 6 9 11 11 8 6 9 13 12 11 8 7 6 5 2 6 10 6 6 6 7 6 4 2 2 4 4
17 14 14 10 10 11 13 10 10 9 7 7 5 4 5 5 5 4 4 7 9 11 9 2 3 9 10 6 9 10 9 5 3 12 12 9 8 3 4 6 4 3 3 3
4 8 5 15 13 12 8 7 7 5 4 5 5 5 6 5 4 4 6 7 8 9 11 11 8 9 5 15 13 12 10 7 10 12 9 8 8 5 17 8 9 10 5 1
13 15 16 13 11 8 6 5 4 4 5 6 7 7 7 6 5 5 5 7 7 8 10 10 2 8 10 9 7 11 8 12 9 8 6 5 8 8 8 3 1 4 3 7
9 6 9 7 4 3 3 3 1 5 7 8 8 7 7 7 8 7 5 7 8 10 9 10 4 5 8 8 10 9 12 12 7 6 7 4 4 5 7 8 7 6 7 9
5 3 3 4 3 3 4 6 10 10 10 10 9 9 8 9 8 7 3 6 9 11 8 3 3 5 5 7 8 11 8 7 7 7 4 2 5 2 6 8 7 7 7 5
2 4 5 6 5 5 8 10 11 11 10 9 8 8 8 8 6 5 5 7 9 7 4 3 4 2 4 6 5 8 12 11 9 8 9 11 2 7 5 6 1 5 5 3
2 4 6 7 5 6 8 8 7 8 8 9 9 9 8 7 5 3 6 8 3 5 5 4 2 1 3 3 4 4 3 4 6 6 5 1 7 5 3 2 5 5 4 2
5 4 6 7 8 9 10 11 11 8 8 9 8 7 7 7 4 6 7 7 1 2 4 5 5 5 3 3 2 6 9 4 5 4 5 5 5 10 8 6 4 6 4 3
5 5 7 8 9 10 9 9 10 9 10 7 8 8 7 5 6 3 7 6 5 3 5 5 6 7 8 5 4 10 8 8 8 5 6 6 7 8 2 5 2 3 4 5
6 6 6 6 5 5 7 4 7 8 8 9 11 9 6 3 6 7 7 7 6 4 5 4 5 5 8 4 4 4 4 4 4 6 5 6 5 6 6 3 4 5 6 6
4 5 2 4 3 3 5 7 7 8 9 9 9 6 5 7 6 3 2 3 5 2 3 4 4 4 5 4 4 6 6 4 3 4 5 5 4 6 3 6 6 5 6 5
2 3 3 2 3 5 6 7 6 5 7 9 7 3 5 8 7 8 8 6 5 5 4 2 4 6 7 6 6 6 6 6 4 4 2 6 6 6 6 5 5 5 5 4
4 3 3 4 4 4 5 6 6 7 6 7 9 7 4 6 5 4 5 2 4 2 4 4 4 5 3 6 7 8 4 4 4 5 4 4 5 6 6 7 6 7 5 6
6 6 4 4 4 4 5 5 5 4 3 5 6 6 6 5 7 7 8 7 5 3 6 3 1 5 8 7 3 5 4 3 4 7 5 5 7 8 7 5 6 6 5 5
7 7 8 8 6 5 9 9 9 5 4 5 4 6 9 9 7 7 7 6 4 4 4 1 5 9 4 5 4 5 3 5 5 5 5 5 6 7 6 5 6 6 6 6
5 3 5 1 1 4 2 2 5 7 7 5 2 4 6 4 3 3 3 3 2 1 3 1 3 4 4 4 3 6 7 4 3 4 5 5 6 6 7 8 6 6 6 5
4 4 5 6 3 5 3 1 4 6 6 6 6 8 10 8 8 8 8 7 6 7 4 3 4 2 2 3 4 4 5 6 7 3 6 5 5 5 5 5 4 3 7 5
Wind_Direction
241 256 222 203 212 233 244 249 258 247 258 197 165 172 135 127 118 130 168 171 270 269 146 147 148 145 150 150 169 154 168 200 204 196 211 247 282 295 302 307 314 330 314 322
242 245 253 245 209 202 223 235 234 258 277 113 127 113 120 135 145 159 157 222 283 275 151 153 153 149 148 153 152 148 169 207 203 196 231 267 284 295 306 295 332 340 317 314
233 241 248 245 246 210 211 213 223 228 216 126 127 135 141 154 139 43 41 349 260 209 181 162 162 155 159 161 148 163 192 205 192 205 228 244 277 283 285 326 343 326 323 314
226 230 244 251 243 226 254 268 266 261 108 97 100 112 101 90 235 244 174 3 352 314 200 161 163 157 158 165 167 163 193 209 194 205 224 247 273 300 313 328 339 321 302 323
234 233 235 246 225 159 206 244 311 275 127 125 124 118 82 50 50 40 38 5 324 305 279 158 161 161 159 163 158 179 194 203 204 197 211 234 254 314 327 321 322 304 306 333
207 246 240 234 150 190 221 228 224 146 153 171 137 188 93 83 44 35 351 306 280 279 256 145 160 152 147 159 168 191 198 201 187 181 218 232 265 285 316 295 288 294 313 304
219 238 242 175 143 127 194 128 70 106 92 86 89 63 86 41 335 17 297 273 263 252 222 159 147 149 164 173 195 195 192 171 170 193 214 222 237 224 271 275 276 291 286 286
248 238 243 131 138 178 103 100 104 89 86 87 77 62 42 22 8 348 347 316 252 220 206 157 159 161 173 197 192 177 161 184 192 200 221 238 254 265 255 258 276 273 282 19
270 57 66 66 91 121 114 108 106 108 106 112 99 74 53 28 14 6 358 340 280 229 210 159 166 168 183 199 186 147 161 192 222 227 216 238 236 251 256 262 249 258 8 11
140 97 88 92 96 107 120 116 112 106 102 87 76 56 38 26 30 5 359 342 337 324 225 180 174 180 188 177 162 153 159 94 333 306 256 244 244 246 246 119 63 7 38 344
109 127 118 119 107 95 92 94 100 103 86 70 48 9 346 341 359 335 331 324 331 330 328 347 320 218 173 118 98 59 66 73 257 251 231 231 234 358 90 50 55 79 66 20
17 123 108 142 128 121 120 109 81 61 49 19 356 323 328 320 312 329 320 324 318 319 318 318 350 97 99 93 114 130 175 210 236 265 259 211 147 99 46 86 97 95 91 87
46 62 67 72 101 115 123 76 21 18 9 341 320 311 303 303 301 296 291 294 310 309 302 306 19 131 140 153 218 158 223 228 225 241 277 271 136 137 136 130 19 130 220 229
71 45 81 78 85 127 206 283 20 306 291 283 283 285 283 278 279 279 301 314 327 312 311 287 157 213 186 215 202 206 230 228 236 244 255 278 161 153 131 169 167 165 224 236
47 37 40 37 17 321 306 278 271 270 277 276 273 268 261 261 264 271 333 331 298 297 305 353 242 265 324 248 220 222 223 234 226 243 282 18 351 185 132 142 101 232 153 212
133 50 349 304 291 294 282 274 275 273 276 283 290 284 268 261 265 276 322 301 289 303 355 329 203 157 103 74 51 30 346 306 71 59 44 2 12 27 77 28 3 80 80 37
305 285 284 271 260 280 290 289 295 300 309 299 297 299 293 276 268 346 303 285 359 337 349 328 228 225 307 108 160 113 19 241 77 81 73 39 52 43 18 129 228 119 137 101
281 294 295 291 286 282 279 281 284 283 285 287 296 286 286 269 289 280 287 298 48 44 39 30 327 310 69 134 107 60 265 154 150 190 97 89 84 81 9 239 130 143 149 184
261 272 276 284 316 316 323 336 344 350 339 320 297 281 284 262 262 308 19 18 28 61 53 29 9 79 74 118 200 225 152 149 155 136 106 100 84 84 178 269 134 154 126 76
269 319 11 32 328 327 314 339 339 339 331 318 290 306 300 335 83 89 95 79 71 63 337 76 73 83 108 79 25 112 108 105 147 136 124 121 129 152 222 152 50 52 71 66
90 92 18 351 322 330 343 2 352 341 329 317 300 293 263 83 92 98 96 114 80 72 12 86 120 146 104 119 122 124 148 162 151 186 177 144 186 232 180 54 82 59 66 58
14 84 79 328 14 34 7 1 355 353 348 341 335 334 102 100 91 72 39 84 108 332 178 154 106 21 121 196 123 123 141 166 185 181 211 63 64 75 74 74 74 74 68 64
90 80 115 102 67 66 53 38 26 12 18 23 21 37 73 81 53 164 123 49 111 65 96 87 53 29 335 229 157 184 158 121 98 83 82 84 69 69 66 51 75 73 46 61
111 95 78 86 119 102 65 60 77 53 20 18 39 25 40 82 82 81 90 83 103 122 95 103 282 263 255 266 129 105 113 107 92 70 69 46 77 73 76 81 79 88 110 73
114 110 89 117 109 124 127 122 102 76 60 74 73 56 54 32 70 73 87 99 78 107 99 45 334 325 42 63 83 76 99 59 63 107 88 104 122 115 96 78 87 91 83 82
118 145 124 279 134 148 120 63 107 139 139 117 125 104 97 98 98 110 115 126 135 242 218 266 357 338 81 74 114 90 72 101 137 80 115 86 81 107 123 140 143 104 87 72
187 230 156 184 166 108 156 116 159 158 144 129 131 148 157 170 169 171 195 168 184 204 132 180 198 27 108 177 104 127 148 90 48 4 108 112 114 119 126 119 120 113 136 102